| Temp | 72.0 °F 1.3 |
|---|---|
| Daily Min Temp | 44.5 °F 0.7 |
| Time of Min Temp | 0611 |
| Daily Max Temp | 72.6 °F 1.9 |
| Time of Max Temp | 0909 |
| Wind Dir | N | 358 ° |
| Wind Spd | 1.9 mph 1.2 |
| Wind Gust | 4.9 mph 2.2 |
| Daily Max Wind | 4.9 mph 0.6 |
| Time of Max Wind | 0915 |
| Max Wind Dir | NNE | 15 ° |
| Leaf Wet | 15.0 mins |
| Daily Leaf Wet | 8.5 Hrs 0.0 |
| Latest Rain | 0.00 In |
| Daily Rain | 0.00 In |
| Yest MinT | 45.2 °F |
| Yest MaxT | 86.7 °F |
| Yest MaxGst | 14.4 mph |
| Yest Leaf Wet | 24.0 Hrs |
| Yest Precip | 0.00 In |
| Month Precip | 0.13 In |
| Season Precip | 24.58 In |
| BatVolt | 13.4 V 0.1 |
| MinBV Day | 12.7 V 0.1 |
| Date & Time | Temp (°F) | RH (%) | Dew Pt (°F) | Wet Bulb (°F) | Wind Dir (°) | Wind Spd (mph) | Wind Gust (mph) | Wind Gst Dir (°) | Leaf Wet (mins) | Latest Rain (In) | Daily Rain (In) | Daily Min Temp (°F) | Daily Max Temp (°F) | Daily Leaf Wet (Hrs) |
|---|---|---|---|---|---|---|---|---|---|---|---|---|---|---|
| 5/10/26 - 0900 | 66.3 | 50 | 51.4 | 59.2 | SSW | 195 | 0.3 | 3.2 | SSW | 194 | 60.0 | 0.00 | 0.00 | 44.5 | 70.9 | 8.0 |
| 5/10/26 - 0800 | 57.0 | 70 | 52.3 | 57.2 | SE | 142 | 0.6 | 3.8 | S | 182 | 60.0 | 0.00 | 0.00 | 44.5 | 62.4 | 7.0 |
| 5/10/26 - 0700 | 46.3 | 87 | 47.2 | 49.6 | SSE | 151 | 0.1 | 2.6 | ESE | 118 | 60.0 | 0.00 | 0.00 | 44.5 | 50.9 | 6.0 |
| 5/10/26 - 0600 | 45.6 | 94 | 43.1 | 44.4 | SE | 137 | 0.3 | 2.6 | SE | 132 | 60.0 | 0.00 | 0.00 | 44.8 | 50.7 | 5.0 |
| 5/10/26 - 0500 | 46.5 | 93 | 44.1 | 45.5 | SSE | 147 | 0.8 | 2.6 | SSE | 149 | 60.0 | 0.00 | 0.00 | 45.9 | 50.7 | 4.0 |
| 5/10/26 - 0400 | 47.7 | 90 | 44.7 | 46.5 | S | 184 | 0.3 | 2.6 | SSW | 193 | 60.0 | 0.00 | 0.00 | 47.3 | 50.7 | 3.0 |
| 5/10/26 - 0300 | 48.6 | 90 | 45.3 | 47.1 | SSE | 151 | 0.6 | 2.6 | SSE | 154 | 60.0 | 0.00 | 0.00 | 48.0 | 50.7 | 2.0 |
| 5/10/26 - 0200 | 49.9 | 87 | 45.4 | 47.8 | SSE | 161 | 1.5 | 3.2 | SSW | 193 | 60.0 | 0.00 | 0.00 | 48.9 | 50.7 | 1.0 |
| 5/10/26 - 0100 | 51.8 | 85 | 46.5 | 49.1 | SE | 126 | 0.7 | 3.2 | ESE | 116 | 60.0 | 0.00 | 0.00 | 45.2 | 86.7 | 24.0 |
| 5/10/26 - 0000 | 55.7 | 76 | 46.2 | 50.1 | SE | 141 | 0.5 | 4.3 | S | 173 | 60.0 | 0.00 | 0.00 | 45.2 | 86.7 | 23.0 |
| 5/9/26 - 2300 | 59.5 | 61 | 44.9 | 51.4 | SSE | 154 | 3.1 | 4.9 | SSE | 150 | 60.0 | 0.00 | 0.00 | 45.2 | 86.7 | 22.0 |
| 5/9/26 - 2200 | 62.5 | 61 | 47.5 | 53.9 | SE | 143 | 3.0 | 4.3 | SSE | 151 | 60.0 | 0.00 | 0.00 | 45.2 | 86.7 | 21.0 |
| 5/9/26 - 2100 | 66.3 | 55 | 47.3 | 54.8 | S | 186 | 3.7 | 6.5 | S | 185 | 60.0 | 0.00 | 0.00 | 45.2 | 86.7 | 20.0 |
| 5/9/26 - 2000 | 75.4 | 45 | 48.0 | 57.2 | SW | 230 | 3.4 | 7.7 | WSW | 244 | 60.0 | 0.00 | 0.00 | 45.2 | 86.7 | 19.0 |
| 5/9/26 - 1900 | 80.7 | 40 | 52.6 | 61.8 | WSW | 256 | 6.4 | 11.6 | W | 260 | 60.0 | 0.00 | 0.00 | 45.2 | 86.7 | 18.0 |
| 5/9/26 - 1800 | 83.8 | 35 | 52.6 | 62.6 | WSW | 244 | 7.7 | 14.4 | SW | 226 | 60.0 | 0.00 | 0.00 | 45.2 | 86.7 | 17.0 |
| 5/9/26 - 1700 | 85.3 | 32 | 51.4 | 62.2 | WSW | 240 | 7.9 | 14.4 | SW | 231 | 60.0 | 0.00 | 0.00 | 45.2 | 86.7 | 16.0 |
| 5/9/26 - 1600 | 86.1 | 33 | 53.1 | 63.2 | SW | 233 | 7.4 | 13.3 | SW | 216 | 60.0 | 0.00 | 0.00 | 45.2 | 86.7 | 15.0 |
| 5/9/26 - 1500 | 85.7 | 30 | 51.3 | 62.4 | SW | 217 | 6.3 | 11.6 | SSW | 203 | 60.0 | 0.00 | 0.00 | 45.2 | 86.7 | 14.0 |
| 5/9/26 - 1400 | 84.5 | 31 | 50.5 | 61.8 | WSW | 244 | 7.3 | 13.3 | W | 274 | 60.0 | 0.00 | 0.00 | 45.2 | 85.0 | 13.0 |
| 5/9/26 - 1300 | 82.9 | 31 | 50.2 | 61.6 | NNW | 328 | 4.2 | 11.0 | WSW | 256 | 60.0 | 0.00 | 0.00 | 45.2 | 84.4 | 12.0 |
| 5/9/26 - 1200 | 79.0 | 40 | 54.3 | 63.2 | NNE | 22 | 3.0 | 8.8 | NNE | 13 | 60.0 | 0.00 | 0.00 | 45.2 | 81.2 | 11.0 |
| 5/9/26 - 1100 | 74.7 | 41 | 51.9 | 61.1 | N | 7 | 1.9 | 6.0 | NNE | 17 | 60.0 | 0.00 | 0.00 | 45.2 | 77.5 | 10.0 |
| 5/9/26 - 1000 | 70.1 | 46 | 50.5 | 59.1 | NNE | 13 | 1.4 | 5.4 | NE | 42 | 60.0 | 0.00 | 0.00 | 45.2 | 72.9 | 9.0 |
| 5/9/26 - 0900 | 64.9 | 53 | 49.3 | 57.0 | NNW | 343 | 0.3 | 4.3 | NNE | 24 | 60.0 | 0.00 | 0.00 | 45.2 | 67.6 | 8.0 |
| 5/9/26 - 0800 | 56.8 | 66 | 50.1 | 55.5 | N | 0 | 0.0 | 0.0 | SSE | 164 | 60.0 | 0.00 | 0.00 | 45.2 | 61.4 | 7.0 |
| 5/9/26 - 0700 | 46.8 | 87 | 47.8 | 50.2 | SE | 146 | 0.1 | 2.1 | SE | 146 | 60.0 | 0.00 | 0.00 | 45.2 | 51.5 | 6.0 |
| 5/9/26 - 0600 | 45.9 | 94 | 43.6 | 44.9 | N | 0 | 0.0 | 0.0 | SE | 146 | 60.0 | 0.00 | 0.00 | 45.3 | 49.5 | 5.0 |
| 5/9/26 - 0500 | 46.5 | 93 | 44.4 | 45.9 | SE | 144 | 1.0 | 3.2 | SSE | 152 | 60.0 | 0.00 | 0.00 | 46.3 | 49.5 | 4.0 |
| 5/9/26 - 0400 | 47.0 | 92 | 44.4 | 46.0 | SSE | 150 | 0.1 | 2.6 | SSE | 152 | 60.0 | 0.00 | 0.00 | 46.7 | 49.5 | 3.0 |
| 5/9/26 - 0300 | 47.3 | 92 | 45.1 | 46.6 | SE | 138 | 0.8 | 2.6 | ESE | 122 | 60.0 | 0.00 | 0.00 | 47.1 | 49.5 | 2.0 |
| 5/9/26 - 0200 | 48.4 | 91 | 45.2 | 46.9 | SSE | 154 | 0.9 | 2.6 | SSE | 166 | 60.0 | 0.00 | 0.00 | 47.6 | 49.5 | 1.0 |
| 5/9/26 - 0100 | 51.4 | 87 | 45.9 | 48.2 | WSW | 244 | 0.6 | 2.6 | WNW | 292 | 60.0 | 0.00 | 0.00 | 40.6 | 83.2 | 24.0 |
| 5/9/26 - 0000 | 54.1 | 76 | 46.4 | 50.4 | SE | 137 | 2.1 | 4.9 | SSE | 149 | 60.0 | 0.00 | 0.00 | 40.6 | 83.2 | 23.0 |
| 5/8/26 - 2300 | 55.8 | 74 | 46.6 | 50.9 | SE | 126 | 2.0 | 3.8 | SE | 143 | 60.0 | 0.00 | 0.00 | 40.6 | 83.2 | 22.0 |
| 5/8/26 - 2200 | 59.0 | 69 | 46.5 | 51.7 | SE | 128 | 2.7 | 4.3 | SSE | 157 | 60.0 | 0.00 | 0.00 | 40.6 | 83.2 | 21.0 |
| 5/8/26 - 2100 | 63.4 | 55 | 44.9 | 52.6 | S | 170 | 3.2 | 6.0 | S | 173 | 60.0 | 0.00 | 0.00 | 40.6 | 83.2 | 20.0 |
| 5/8/26 - 2000 | 71.2 | 48 | 46.3 | 55.3 | SSW | 210 | 4.3 | 8.8 | SW | 219 | 60.0 | 0.00 | 0.00 | 40.6 | 83.2 | 19.0 |
| 5/8/26 - 1900 | 77.4 | 39 | 48.6 | 58.8 | WSW | 256 | 6.2 | 11.0 | W | 268 | 60.0 | 0.00 | 0.00 | 40.6 | 83.2 | 18.0 |
| 5/8/26 - 1800 | 80.0 | 31 | 46.1 | 58.5 | W | 271 | 7.5 | 12.7 | W | 265 | 60.0 | 0.00 | 0.00 | 40.6 | 83.2 | 17.0 |
| 5/8/26 - 1700 | 81.5 | 31 | 47.5 | 59.6 | W | 260 | 7.4 | 14.4 | SW | 225 | 60.0 | 0.00 | 0.00 | 40.6 | 83.2 | 16.0 |
| 5/8/26 - 1600 | 82.4 | 32 | 49.2 | 60.7 | WSW | 245 | 7.1 | 14.9 | SSW | 213 | 60.0 | 0.00 | 0.00 | 40.6 | 83.2 | 15.0 |
| 5/8/26 - 1500 | 82.4 | 30 | 48.1 | 60.2 | WSW | 242 | 6.2 | 12.7 | SW | 233 | 60.0 | 0.00 | 0.00 | 40.6 | 83.2 | 14.0 |
| 5/8/26 - 1400 | 80.9 | 31 | 48.8 | 60.5 | NW | 310 | 2.0 | 9.9 | W | 265 | 60.0 | 0.00 | 0.00 | 40.6 | 82.6 | 13.0 |
| 5/8/26 - 1300 | 77.1 | 34 | 48.7 | 59.7 | NNE | 22 | 3.5 | 8.8 | NNE | 17 | 60.0 | 0.00 | 0.00 | 40.6 | 79.1 | 12.0 |
| 5/8/26 - 1200 | 73.5 | 46 | 53.0 | 61.3 | N | 9 | 3.8 | 10.5 | NNW | 333 | 60.0 | 0.00 | 0.00 | 40.6 | 75.4 | 11.0 |
| 5/8/26 - 1100 | 70.9 | 50 | 52.4 | 60.1 | NNE | 16 | 2.9 | 10.5 | ENE | 61 | 60.0 | 0.00 | 0.00 | 40.6 | 72.5 | 10.0 |
| 5/8/26 - 1000 | 66.6 | 52 | 50.6 | 58.2 | N | 10 | 1.0 | 4.9 | NW | 306 | 60.0 | 0.00 | 0.00 | 40.6 | 69.0 | 9.0 |
| 5/8/26 - 0900 | 61.4 | 56 | 47.5 | 54.7 | ENE | 69 | 0.6 | 3.8 | NNE | 33 | 60.0 | 0.00 | 0.00 | 40.6 | 63.6 | 8.0 |
| Max | 86.1 | 94 | 54.3 | 63.2 | - | 7.9 | 14.9 | - | 60.0 | 0.00 | 0.00 | 48.9 | 86.7 | 24.0 |
| Avg | 65.0 | 59 | 48.1 | 54.8 | - | 2.8 | 6.6 | - | 60.0 | 0.00 | - | - | - | - |
| Min | 45.6 | 30 | 43.1 | 44.4 | - | 0.0 | 0.0 | - | 60.0 | 0.00 | 0.00 | 40.6 | 49.5 | 1.0 |
| Total | - | - | - | - | - | - | - | - | - | 0.00 | - | - | - | - |
| Date | Daily Max Temp (°F) | Time of Max Temp | Daily Min Temp (°F) | Time of Min Temp | Daily Rain (In) | Month Precip (In) | Season Precip (In) | Wind Spd (mph) | Daily Max Wind (mph) | Time of Max Wind | Max Wind Dir (°) | Dew Pt (°F) | Daily Leaf Wet (Hrs) | Hrs 70-85F (hrs) | Hrs > 95F (hrs) | Powdery Mildew Stress (pts) | GDDs (DL) | GDDs (Mx/Mn) | Seas GDDs (DL) | Seas GDDs (Smpl) | Hrs <= 32F (hrs) | Hrs <= 28F (hrs) | Chilling <=45F (hrs) | Chill Hrs 32-45F (hrs) | Utah Chilling (Units) | Chill Portions | Degree Hrs (hrs) | Max 1 Min Rain (In) | Max 1 Min Rain Time | Max 15 Min Rain (In) | Max 15 Min Precip Time | Max 60 Min Rain (In) | Max 60 Min Rain Time | MinBV Day (V) |
|---|---|---|---|---|---|---|---|---|---|---|---|---|---|---|---|---|---|---|---|---|---|---|---|---|---|---|---|---|---|---|---|---|---|---|
| 5/9/26 | 86.7 | 1453 | 45.2 | 0607 | 0.00 | 0.13 | 24.58 | 3.0 | 14.4 | 1606 | SW | 231 | 46.5 | 24.0 | 4.75 | 0.00 | 70 | 16.9 | 16.0 | 293 | 223 | 0.0 | 0.0 | 0.0 | 0.0 | -7.0 | - | 174.6 | - | - | - | - | - | - | 12.6 |
| 5/8/26 | 83.2 | 1447 | 40.6 | 0540 | 0.00 | 0.13 | 24.58 | 2.8 | 14.9 | 1529 | SSW | 213 | 45.9 | 24.0 | 9.40 | 0.00 | 80 | 14.2 | 11.9 | 276 | 207 | 0.0 | 0.0 | 4.7 | 4.7 | -5.0 | - | 128.8 | - | - | - | - | - | - | 12.6 |
| 5/7/26 | 83.2 | 1602 | 45.7 | 0606 | 0.00 | 0.13 | 24.58 | 2.6 | 14.9 | 1727 | WSW | 241 | 45.9 | 24.0 | 9.51 | 0.00 | 60 | 14.4 | 14.4 | 262 | 195 | 0.0 | 0.0 | 0.0 | 0.0 | -7.0 | - | 129.3 | - | - | - | - | - | - | 12.6 |
| 5/6/26 | 79.9 | 1703 | 51.2 | 0059 | 0.00 | 0.13 | 24.58 | 2.4 | 14.4 | 1708 | WSW | 246 | 49.7 | 24.0 | 6.92 | 0.00 | 40 | 13.5 | 15.5 | 248 | 181 | 0.0 | 0.0 | 0.0 | 0.0 | -10.5 | - | 77.4 | - | - | - | - | - | - | 12.7 |
| 5/5/26 | 70.9 | 1626 | 47.4 | 0531 | 0.00 | 0.13 | 24.58 | 3.8 | 16.6 | 1742 | WSW | 242 | 50.5 | 24.0 | 1.25 | 0.00 | 20 | 8.3 | 9.2 | 234 | 165 | 0.0 | 0.0 | 0.0 | 0.0 | -3.0 | - | 18.9 | - | - | - | - | - | - | 12.5 |
| 5/4/26 | 58.8 | 1115 | 50.1 | 0023 | 0.13 | 0.13 | 24.58 | 2.8 | 13.8 | 1941 | W | 281 | 48.4 | 24.0 | 0.00 | 0.00 | 30 | 3.9 | 4.5 | 226 | 156 | 0.0 | 0.0 | 0.0 | 0.0 | 6.0 | - | 0.0 | 0.01 | 2219 | 0.04 | 1323 | 0.09 | 1358 | 12.6 |
| 5/3/26 | 65.7 | 1505 | 47.1 | 0533 | 0.00 | 0.00 | 24.45 | 4.6 | 17.7 | 1718 | SSW | 206 | 47.5 | 24.0 | 0.00 | 0.00 | 40 | 5.9 | 6.4 | 222 | 152 | 0.0 | 0.0 | 0.0 | 0.0 | 4.0 | - | 0.0 | - | - | - | - | - | - | 12.6 |
| 5/2/26 | 78.4 | 1353 | 48.3 | 0415 | 0.00 | 0.00 | 24.45 | 3.6 | 19.4 | 1443 | SW | 230 | 48.0 | 24.0 | 5.80 | 0.00 | 50 | 10.7 | 13.4 | 216 | 145 | 0.0 | 0.0 | 0.0 | 0.0 | -5.0 | - | 60.6 | - | - | - | - | - | - | 12.7 |
| 5/1/26 | 82.8 | 1504 | 44.3 | 0619 | 0.00 | 0.00 | 24.45 | 2.7 | 12.7 | 1652 | W | 281 | 50.9 | 24.0 | 9.86 | 0.00 | 60 | 15.3 | 13.6 | 205 | 132 | 0.0 | 0.0 | 1.1 | 1.1 | -7.5 | - | 134.1 | - | - | - | - | - | - | 12.7 |
| 4/30/26 | 83.0 | 1528 | 40.0 | 0625 | 0.00 | 3.96 | 24.45 | 2.5 | 14.9 | 1720 | W | 266 | 43.6 | 24.0 | 9.19 | 0.00 | 40 | 14.1 | 11.5 | 190 | 118 | 0.0 | 0.0 | 5.1 | 5.1 | -4.5 | - | 125.1 | - | - | - | - | - | - | 12.5 |
| 4/29/26 | 78.2 | 1623 | 39.3 | 0623 | 0.00 | 3.96 | 24.45 | 2.8 | 14.4 | 1539 | WSW | 251 | 42.1 | 24.0 | 7.95 | 0.00 | 20 | 11.6 | 8.8 | 176 | 107 | 0.0 | 0.0 | 5.0 | 5.0 | -2.5 | 88 | 83.9 | - | - | - | - | - | - | 12.6 |
| 4/28/26 | 72.6 | 1550 | 38.1 | 0633 | 0.00 | 3.96 | 24.45 | 2.5 | 16.6 | 1746 | WNW | 290 | 42.7 | 24.0 | 2.69 | 0.00 | 0 | 8.3 | 5.4 | 164 | 98 | 0.0 | 0.0 | 6.5 | 6.5 | 1.5 | 88 | 31.1 | - | - | - | - | - | - | 12.6 |
| 4/27/26 | 66.8 | 1538 | 44.7 | 0054 | 0.00 | 3.96 | 24.45 | 3.3 | 16.6 | 1111 | NE | 48 | 42.2 | 24.0 | 0.00 | 0.00 | 0 | 5.4 | 5.8 | 156 | 93 | 0.0 | 0.0 | 0.2 | 0.2 | 6.0 | 88 | 1.6 | - | - | - | - | - | - | 12.7 |
| 4/26/26 | 60.8 | 1553 | 47.0 | 0616 | 0.00 | 3.96 | 24.45 | 4.3 | 17.7 | 1621 | W | 261 | 43.2 | 24.0 | 0.00 | 0.00 | 0 | 2.9 | 3.9 | 150 | 87 | 0.0 | 0.0 | 0.0 | 0.0 | 10.0 | 87 | 0.0 | - | - | - | - | - | - | 12.7 |
| 4/25/26 | 61.7 | 1423 | 43.4 | 0325 | 0.00 | 3.96 | 24.45 | 4.8 | 17.7 | 1654 | SSW | 209 | 42.1 | 24.0 | 0.00 | 0.00 | 0 | 3.1 | 2.6 | 148 | 83 | 0.0 | 0.0 | 4.4 | 4.4 | 10.5 | 87 | 0.0 | - | - | - | - | - | - | 12.7 |
| 4/24/26 | 72.0 | 1544 | 39.7 | 0641 | 0.00 | 3.96 | 24.45 | 3.3 | 16.0 | 1805 | SSW | 193 | 44.2 | 24.0 | 3.52 | 0.00 | 0 | 8.5 | 5.8 | 144 | 80 | 0.0 | 0.0 | 6.3 | 6.3 | 0.5 | 86 | 33.7 | - | - | - | - | - | - | 12.6 |
| 4/23/26 | 72.5 | 1752 | 35.4 | 0623 | 0.00 | 3.96 | 24.45 | 2.2 | 14.4 | 1832 | SW | 228 | 43.5 | 22.3 | 3.09 | 0.00 | 0 | 7.6 | 4.0 | 136 | 75 | 0.0 | 0.0 | 6.8 | 6.8 | 2.5 | 86 | 27.3 | - | - | - | - | - | - | 12.6 |
| 4/22/26 | 63.6 | 1729 | 42.5 | 0059 | 0.02 | 3.96 | 24.45 | 2.4 | 25.6 | 1321 | ESE | 110 | 40.6 | 24.0 | 0.00 | 0.00 | 0 | 4.0 | 3.1 | 128 | 71 | 0.0 | 0.0 | 2.9 | 2.9 | 9.0 | 85 | 0.0 | 0.01 | 0502 | 0.01 | 0516 | 0.02 | 0545 | 12.7 |
| 4/21/26 | 58.3 | 1646 | 43.8 | 2349 | 0.30 | 3.94 | 24.43 | 4.1 | 20.5 | 1600 | SW | 225 | 42.8 | 24.0 | 0.00 | 0.00 | 0 | 1.7 | 1.0 | 124 | 68 | 0.0 | 0.0 | 1.6 | 1.6 | 14.5 | 85 | 0.0 | 0.02 | 1346 | 0.07 | 0945 | 0.20 | 0952 | 12.6 |
| 4/20/26 | 53.3 | 1555 | 47.0 | 0439 | 0.67 | 3.64 | 24.13 | 2.8 | 14.9 | 1158 | E | 101 | 46.7 | 24.0 | 0.00 | 0.00 | 0 | 0.6 | 0.2 | 122 | 67 | 0.0 | 0.0 | 0.0 | 0.0 | 13.5 | 84 | 0.0 | 0.01 | 0007 | 0.04 | 2132 | 0.09 | 1415 | 12.6 |
| 4/19/26 | 69.4 | 1401 | 36.8 | 0649 | 0.00 | 2.97 | 23.46 | 3.9 | 16.0 | 1353 | SSW | 212 | 18.9 | 24.0 | 0.00 | 0.00 | 0 | 7.7 | 3.1 | 122 | 66 | 0.0 | 0.0 | 6.6 | 6.6 | 1.0 | 83 | 14.7 | - | - | - | - | - | - | 12.6 |
| 4/18/26 | 74.1 | 1534 | 35.1 | 0641 | 0.00 | 2.97 | 23.46 | 2.9 | 19.4 | 1238 | NNE | 12 | 39.2 | 24.0 | 5.06 | 0.00 | 0 | 8.9 | 4.6 | 114 | 63 | 0.0 | 0.0 | 6.7 | 6.7 | 0.5 | 83 | 45.2 | - | - | - | - | - | - | 12.6 |
| 4/17/26 | 73.0 | 1657 | 32.6 | 0556 | 0.51 | 2.97 | 23.46 | 2.1 | 11.6 | 1843 | SSW | 200 | 37.1 | 24.0 | 4.01 | 0.00 | 10 | 7.5 | 2.8 | 105 | 59 | 0.0 | 0.0 | 9.2 | 9.2 | 0.0 | 83 | 33.7 | 0.01 | 1225 | 0.04 | 0615 | 0.10 | 0647 | 12.6 |
| 4/16/26 | 66.8 | 1539 | 35.4 | 0643 | 0.00 | 2.46 | 22.95 | 3.2 | 15.5 | 1221 | ENE | 59 | 29.2 | 24.0 | 0.00 | 0.00 | 20 | 5.5 | 1.1 | 98 | 56 | 0.0 | 0.0 | 10.1 | 10.1 | 7.0 | 82 | 2.0 | - | - | - | - | - | - | 12.6 |
| 4/15/26 | 64.9 | 1530 | 36.2 | 0622 | 0.00 | 2.46 | 22.95 | 4.2 | 21.6 | 1613 | NW | 321 | 42.2 | 24.0 | 0.00 | 0.00 | 30 | 4.2 | 0.5 | 92 | 55 | 0.0 | 0.0 | 7.7 | 7.7 | 10.0 | 82 | 0.0 | - | - | - | - | - | - | 12.6 |
| 4/14/26 | 66.9 | 1706 | 36.0 | 0649 | 0.00 | 2.46 | 22.95 | 3.2 | 16.6 | 1455 | W | 276 | 39.6 | 24.0 | 0.00 | 0.00 | 40 | 5.0 | 1.4 | 88 | 54 | 0.0 | 0.0 | 9.0 | 9.0 | 8.0 | 82 | 2.0 | - | - | - | - | - | - | 12.6 |
| 4/13/26 | 64.1 | 1601 | 35.7 | 0423 | 0.40 | 2.46 | 22.95 | 2.8 | 15.5 | 1628 | W | 275 | 40.9 | 24.0 | 0.00 | 0.00 | 50 | 3.7 | 0.0 | 83 | 53 | 0.0 | 0.0 | 9.6 | 9.6 | 11.5 | 81 | 0.0 | 0.01 | 0911 | 0.04 | 0716 | 0.11 | 0717 | 12.7 |
| 4/12/26 | 57.6 | 1626 | 38.9 | 0059 | 0.04 | 2.06 | 22.55 | 5.6 | 20.0 | 1327 | SW | 226 | 37.8 | 24.0 | 0.00 | 0.00 | 60 | 1.1 | 0.0 | 79 | 53 | 0.0 | 0.0 | 7.6 | 7.6 | 18.0 | 80 | 0.0 | 0.01 | 1712 | 0.03 | 1714 | 0.03 | 1759 | 12.6 |
| 4/11/26 | 55.6 | 1354 | 42.4 | 1625 | 0.19 | 2.02 | 22.51 | 4.4 | 32.8 | 1613 | SW | 215 | 41.9 | 24.0 | 0.00 | 0.00 | 70 | 0.7 | 0.0 | 78 | 53 | 0.0 | 0.0 | 8.5 | 8.5 | 16.5 | 79 | 0.0 | 0.01 | 1617 | 0.04 | 1626 | 0.10 | 1617 | 12.6 |
| 4/10/26 | 59.5 | 1409 | 47.1 | 0032 | 0.92 | 1.83 | 22.32 | 2.0 | 9.9 | 1405 | SSE | 167 | 47.6 | 24.0 | 0.00 | 0.00 | 80 | 2.5 | 3.3 | 78 | 53 | 0.0 | 0.0 | 0.0 | 0.0 | 10.0 | 79 | 0.0 | 0.02 | 1917 | 0.10 | 1929 | 0.22 | 0807 | 12.6 |
| Max | 86.7 | - | 51.2 | - | 0.92 | 3.96 | 24.58 | 5.6 | 32.8 | - | - | 50.9 | 24.0 | 9.86 | 0.00 | - | 16.9 | 16.0 | - | - | 0.0 | 0.0 | 10.1 | 10.1 | 18.0 | 88 | 174.6 | 0.02 | - | 0.10 | - | 0.22 | - | 12.7 |
| Avg | - | - | - | - | - | - | - | 3.3 | - | - | - | 42.7 | - | 2.77 | 0.00 | - | 7.3 | 5.8 | - | - | 0.0 | 0.0 | 4.0 | 4.0 | 3.6 | 84 | - | - | - | - | - | - | - | - |
| Min | 53.3 | - | 32.6 | - | 0.00 | 0.00 | 22.32 | 2.0 | 9.9 | - | - | 18.9 | 22.3 | 0.00 | 0.00 | - | 0.6 | 0.0 | - | - | 0.0 | 0.0 | 0.0 | 0.0 | -10.5 | 79 | 0.0 | 0.01 | - | 0.01 | - | 0.02 | - | 12.5 |
| Total | - | - | - | - | - | - | - | - | - | - | - | - | - | 82.98 | 0.00 | - | 217.8 | 173.5 | - | - | 0.0 | 0.0 | 119.5 | 119.5 | 108.5 | - | - | - | - | - | - | - | - | - |